Regional Weather Roundup
Issued by NWS

Home | Current Version | Previous Version | Text Only | Print | Product List | Glossary On
Versions: 1 2 3 4 5 6 7 8 9 10 11 12 13 14 15 16 17 18 19 20 21 22 23 24 25 26 27 28 29 30 31 32 33 34 35 36 37 38 39 40 41 42 43 44 45 46 47 48 49 50
000
ASUS42 KFFC 260903
RWRGA
WEATHER ROUNDUP FOR GEORGIA
NATIONAL WEATHER SERVICE PEACHTREE CITY GA
400 AM EST MON JAN 26 2015

NOTE: "FAIR" INDICATES FEW OR NO CLOUDS BELOW 12,000 FEET WITH NO
SIGNIFICANT WEATHER AND/OR OBSTRUCTIONS TO VISIBILITY.

* = USE WITH CAUTION. THE STATIONS MARKED WITH AN ASTERISK MAY NOT
REPORT WEATHER SUCH AS PRECIPITATION, FOG, OR THUNDER AND ARE NOT
QUALITY CONTROLLED BY NWS.

THE REMARK "TC" DENOTES TEMPERATURE READING IN DEGREES CELSIUS.

GAZ001>058-261000-
NORTH GEORGIA

CITY           SKY/WX    TMP DP  RH WIND       PRES   REMARKS
ATLANTA        PTCLDY    43  38  82 W9        29.74S
ATHENS         MOCLDY    43  39  86 W5        29.70F
CHAMBLEE       CLOUDY    43  39  86 W9        29.72S
PEACHTREE CITY CLOUDY    45  39  79 W7        29.76S
ROME           MOCLDY    44  40  85 W9        29.74S
WEST ATLANTA   MOCLDY    43  38  82 W8        29.74S
GAINESVILLE    CLOUDY    43  40  89 W8        29.69F
CARTERSVILLE   CLOUDY    43  38  82 VRB5      29.75S


CITY           SKY/WX    TMP DP  RH WIND       PRES   REMARKS
DALTON*        CLOUDY    45  41  87 CALM      29.73S
MARIETTA       CLOUDY    42  40  93 W13       29.73R
$$

GAZ059>098-102>109-261000-
CENTRAL GEORGIA

CITY           SKY/WX    TMP DP  RH WIND       PRES   REMARKS
AUGUSTA-BUSH   MOCLDY    46  40  79 W8        29.71F
AUGUSTA-DANIEL PTCLDY    49  39  68 W6        29.70F
COLUMBUS       CLEAR     46  39  76 W8        29.80S
MACON          CLOUDY    46  40  79 W9        29.76S
ROBINS AFB     MOCLDY    48  41  77 W8        29.73S


CITY           SKY/WX    TMP DP  RH WIND       PRES   REMARKS
LAGRANGE*      MOCLDY    46  44  92 W8        29.79S
SYLVANIA*      PTCLDY    43  43  99 S3        29.74F
MILLEDGEVILLE* PTCLDY    41  39  93 CALM      29.73S
$$

GAZ099>101-110>166-261000-
SOUTH GEORGIA

CITY           SKY/WX    TMP DP  RH WIND       PRES   REMARKS
SAVANNAH       CLOUDY    49  44  83 SW8       29.76F
VALDOSTA       CLEAR     51  48  89 VRB3      29.80S
ALMA           CLEAR     47  45  93 W3        29.77F
ST SIMONS      CLOUDY    52  48  86 SW8       29.76F
FT STEWART     CLOUDY    48  45  88 SW5       29.75F
ALBANY         CLEAR     49  45  86 W7        29.83S
HUNTER AFB     CLOUDY    50  47  88 SW7       29.74F
MOODY AFB      CLEAR     50  47  88 W9        29.78F
BRUNSWICK      CLOUDY    54  46  76 SW6       29.76F


CITY           SKY/WX    TMP DP  RH WIND       PRES   REMARKS
BAINBRIDGE*    CLEAR     54  48  82 W9        29.84S
MOULTRIE*      CLEAR     50  48  93 W7        29.81F
VIDALIA*       PTCLDY    45  45 100 SW5       29.76S
WAYCROSS*      CLEAR     51  50  97 SW3       29.77F
DOUGLAS*       CLEAR     46  46 100 W3        29.79F
$$



USA.gov is the U.S. government's official web portal to all federal, state and local government web resources and services.